Regional Weather Roundup
Issued by NWS

Home | Current Version | Previous Version | Graphics & Text | Print | Product List | Glossary On
Versions: 1 2 3 4 5 6 7 8 9 10 11 12 13 14 15 16 17 18 19 20 21 22 23 24 25 26 27 28 29 30 31 32 33 34 35 36 37 38 39 40 41 42 43 44 45 46 47 48 49 50
590
ASUS43 KDMX 250106
RWRIA

WEATHER ROUNDUP FOR IOWA
NATIONAL WEATHER SERVICE DES MOINES IA
800 PM CDT SUN SEP 24 2017

NOTE: "FAIR" INDICATES FEW OR NO CLOUDS BELOW 12,000 FEET WITH NO
SIGNIFICANT WEATHER AND/OR OBSTRUCTIONS TO VISIBILITY.

* - THESE STATIONS ARE NOT NWS STATIONS...THUS NOT UNDER NWS
QUALITY CONTROL.  THEY ALSO DO NOT REPORT WEATHER SUCH
AS PRECIPITATION OR FOG.

IAZ001>003-012>014-020>022-031>034-043>046-250200-
   NORTHWEST IOWA

CITY           SKY/WX    TMP DP  RH WIND       PRES   REMARKS
CARROLL *      LGT RAIN  72  70  94 S7G14     29.92R
CHEROKEE *     CLOUDY    67  66  96 N6        29.92S
DENISON *      CLOUDY    68  66  94 VRB5      29.93S
LE MARS *      LGT RAIN  63  59  88 NW7G18    29.94R
ORANGE CITY *  CLOUDY    64  63  94 W13       29.96R
SHELDON *      CLOUDY    64  61  88 NW6       29.93R
SIOUX CITY     CLOUDY    62  60  93 NW9       29.94R
SPENCER        CLOUDY    68  66  93 NW7       29.94R
STORM LAKE *   CLOUDY    66  64  94 E3        29.93R
$$

IAZ055>058-069>071-079>083-090>094-250200-
   SOUTHWEST IOWA

CITY           SKY/WX    TMP DP  RH WIND       PRES   REMARKS
ATLANTIC *     MOCLDY    70  68  94 CALM      29.90R
AUDUBON *      PTCLDY    70  66  88 CALM      29.92F
CLARINDA *     PTCLDY    77  64  65 S3        29.91R
COUNCIL BLFS * MOCLDY    75  68  78 SE5       29.89S
CRESTON *      CLEAR     77  63  61 S6        29.93S
HARLAN  *      CLOUDY    70  68  94 CALM      29.93S
LAMONI         CLEAR     80  63  55 SE6       29.92S HX  81
RED OAK *      PTCLDY    72  68  88 CALM      29.89S
SHENANDOAH *   PTCLDY    73  68  83 CALM      29.89S
$$

IAZ047>049-059>061-072>074-084-250200-
   CENTRAL IOWA

CITY           SKY/WX    TMP DP  RH WIND       PRES   REMARKS
AMES           CLEAR     76  64  66 SE6       29.91R
ANKENY *       CLEAR     79  63  57 CALM      29.92R HX  80
BOONE *        CLEAR     79  63  57 S6        29.91R HX  80
CHARITON *     CLEAR     77  64  65 SE5       29.92S
DES MOINES     PTCLDY    81  62  52 SE7       29.90S HX  82
GRINNELL*      CLEAR     76  63  64 SE6       29.94S
KNOXVILLE *    CLEAR     79  64  61 SE5       29.91S HX  81
MARSHALLTOWN   CLEAR     79  63  57 S7        29.92R HX  80
NEWTON *       CLEAR     77  63  61 S7        29.93R
PELLA *        CLEAR     78  63  58 SE5       29.93S HX  80
PERRY *          N/A     78  60  54 SE6       29.91R
$$

IAZ004>006-015-016-023>025-035-036-250200-
   NORTH CENTRAL IOWA

CITY           SKY/WX    TMP DP  RH WIND       PRES   REMARKS
ALGONA *       CLOUDY    75  66  73 SW12G21   29.94R
CLARION *      CLEAR     77  63  61 S7        29.91R
ESTHERVILLE    CLOUDY    68  68 100 W5        29.92R
FORT DODGE *   CLOUDY    76  63  64 NW5       29.92R
MASON CITY     CLEAR     74  61  63 S8        29.92R
FOREST CITY *  MOCLDY    75  61  60 W7        29.92R
WEBSTER CITY * CLEAR     77  61  57 S6        29.89R
IOWA FALLS *     N/A     76  62  63 SE7       29.93S
$$

IAZ007>011-017>019-026>030-037>042-050>054-066-250200-
   NORTHEAST IOWA

CITY           SKY/WX    TMP DP  RH WIND       PRES   REMARKS
CEDAR RAPIDS   CLEAR     76  62  62 SE5       29.94S
CHARLES CITY * CLEAR     79  61  53 S7        29.93R HX  80
CLINTON *      CLEAR    N/A N/A N/A SE7       29.97S
DECORAH *      CLEAR     77  64  65 SE6       29.94R
DUBUQUE        CLEAR     76  63  64 SE5       29.98S
MONTICELLO *   CLEAR     73  63  68 SE5       29.96R
OELWEIN *      CLEAR     75  64  69 SE7       29.95R
WATERLOO       CLEAR     78  61  55 S6        29.91S HX  80
$$

IAZ064-065-067-068-078-250200-
   EAST CENTRAL IOWA

CITY           SKY/WX    TMP DP  RH WIND       PRES   REMARKS
DAVENPORT      CLEAR     75  65  70 SE6       29.98S
IOWA CITY      CLEAR     78  65  63 SE3       29.96R HX  80
MT. PLEASANT * CLEAR     75  62  64 E5        29.95R
MUSCATINE *    CLEAR     75  66  73 CALM      29.95R
QUAD CITIES    CLEAR     74  66  76 SE6       29.96R
$$

IAZ062-063-075>077-085>089-095>099-250200-
   SOUTHEAST IOWA

CITY           SKY/WX    TMP DP  RH WIND       PRES   REMARKS
BURLINGTON     CLEAR     80  63  55 SE6       29.95S HX  81
FAIRFIELD *    CLEAR     75  63  64 SE6       29.94R
FORT MADISON * CLEAR     81  63  54 SE6       29.96R HX  82
KEOKUK *       CLEAR     81  61  50 SE6       29.94R HX  81
OSKALOOSA *      N/A     76  63  63 SE3       29.94R
OTTUMWA        CLEAR     77  64  64 SE6       29.93S
WASHINGTON *   CLEAR     77  63  61 SE6       29.96R
$$

ABBREVIATIONS USED IN REMARKS
   TC - TEMPERATURES IN CELSIUS
  WCI - WIND CHILL INDEX
   HX - HEAT INDEX
  VSB - VISIBILITY
$$





USA.gov is the U.S. government's official web portal to all federal, state and local government web resources and services.